Location: Unspecified
(0.0000°N, 0.0000°E)
Time: 10:06:18
(UTC+00:00)

X-37B - Pass Details

Date: 01 October 2023
Orbit: 277 x 277 km, 45.0° (Epoch: 01 November)

Event Time Altitude Azimuth Distance (km) Brightness Sun altitude
Rises 18:50:30 0° 243° (WSW) 1,905 5.4 -15.2°
Reaches altitude 10° 18:52:42 10° 262° (W) 1,091 4.2 -15.7°
Maximum altitude 18:54:34 19° 313° (NW) 729 2.5 -16.2°
Enters shadow 18:56:07 12° 358° (N) 990 2.6 -16.6°
